Find Kosmos-2459

NORAD ID: 36400 Int'l Des: 2010-007 Owner: KVR/IACG Country: RU Constellation: GLONASS operational
MEOCIRCULAR

リアルタイム位置

3D地球を読み込み中...

Kosmos-2459について

説明を読み込み中...

次回通過

Passes for default location (London). Set your location on the main map for personalized predictions.

高度履歴

Loading altitude history...

軌道要素

1 36400U 10007A 26102.77295472 -.00000002 00000-0 00000+0 0 9997
2 36400 65.4781 316.7938 0026399 348.3090 9.2356 2.13116948125423
Epoch: Apr 12, 2026 • Age: 104 hours

現在のステータス

高度 19141.0 km
速度 3.95 km/s
衛星直下点 63.71°N, 141.58°E
打ち上げ日 Mar 1, 2010
運用期間 16.1 years
タイプ other

技術仕様

分類 Payload
質量 1450.00 kg
乾燥質量 1200.00 kg
総質量 1450.00 kg
長さ 4.00 m
直径 1.50 m
スパン 7.80 m
形状 Cyl + Ant + 2 Pan
製造者 RESH
バスタイプ Uragan
フェーズステータス In Orbit
所有者/国 KVR/IACG/RU

Most Searched